Regional Weather Roundup
Issued by NWS

Home | Current Version | Previous Version | Text Only | Print | Product List | Glossary On
Versions: 1 2 3 4 5 6 7 8 9 10 11 12 13 14 15 16 17 18 19 20 21 22 23 24 25 26 27 28 29 30 31 32 33 34 35 36 37 38 39 40 41 42 43 44 45 46 47 48 49 50
000
ASCA42 TJSJ 240710
RWRPR
PUERTO RICO/U.S. VIRGIN ISLANDS HOURLY WEATHER ROUNDUP
NATIONAL WEATHER SERVICE SAN JUAN PR
300 AM AST SAT FEB 24 2018

PRZ001>002-007>008-010-240800-
PUERTO RICO

CITY           SKY/WX    TMP DP  RH WIND       PRES   REMARKS
SAN JUAN LMM   MOCLDY    72  70  94 S3        30.06F
AGUADILLA      CLEAR     68  64  88 E9        30.07F
$$

VIZ001>002-240800-
U.S. VIRGIN ISLANDS

CITY           SKY/WX    TMP DP  RH WIND       PRES   REMARKS
CHARLOTTE AMA  LGT RAIN  73  70  88 E6        30.05F FOG
CHRISTIANSTED  CLEAR     73  64  73 NE12      30.04F
$$

HOURLY WEATHER ROUNDUP FOR THE NEWS MEDIA

CITY           SKY/WX    TMP DP  RH WIND       PRES   REMARKS
ORLANDO        FAIR      65  65 100 E3        30.26F
NEW YORK       CLOUDY    43  42  97 W10       30.18F
NEWARK         CLOUDY    43  41  93 W9        30.17F
CHICAGO        CLOUDY    33  27  78 N8        30.23F WCI  26
HARTFORD       FAIR      41  40  96 W13       30.06F
BOSTON         FAIR      40  38  93 W15       30.03F WCI  32
DALLAS         CLOUDY    47  45  93 NW8       30.00S
PHILADELPHIA   CLOUDY    44  43  96 W9        30.22F
LOS ANGELES    CLEAR     51  19  28 N13       30.27S
WASHINGTON DC  FOG       47  47 100 CALM      30.22S VSB 1/2


USA.gov is the U.S. government's official web portal to all federal, state and local government web resources and services.